Location: Korczew
(51.3586°N, 19.4491°E)
Time: 22:16:29
(UTC+00:00)

NOSS 3-1 (C) - Pass Details

Date: 19 May 2025
Orbit: 632 x 1571 km, 63.4° (Epoch: 12 June)

Event Time Altitude Azimuth Distance (km) Brightness Sun altitude
Rises 20:18:14 0° 214° (SW) 2,990 5.8 -12.3°
Reaches altitude 10° 20:20:22 10° 212° (SSW) 2,140 5.1 -12.5°
Maximum altitude 20:25:09 71° 130° (SE) 821 3.0 -12.9°
Drops below altitude 10° 20:31:01 10° 47° (NE) 2,611 5.9 -13.4°
Sets 20:33:52 0° 46° (NE) 3,708 6.7 -13.6°
